This is the latest recevied weather packets stored in our database for station/object OE5HCE. If no packets are shown the sender has not sent any weather packets the latest 10 day(s).
| Time | Temp. | Humidity | Pressure | Rain* | Wind** | Luminosity | Snow |
|---|---|---|---|---|---|---|---|
| 1787823010 | 23.33° C | 68% | 1016.4 hPa | 0 mm | - | 615 W/m² | - |
| 1787822160 | 22.78° C | 69% | 1016.3 hPa | 0 mm | - | 585 W/m² | - |
| 1787821260 | 22.22° C | 70% | 1016.7 hPa | 0 mm | - | 570 W/m² | - |
| 1787820351 | 21.67° C | 71% | 1016.4 hPa | 0 mm | - | 519 W/m² | - |
| 1787819447 | 21.67° C | 71% | 1016.4 hPa | 0 mm | - | 167 W/m² | - |
| 1787818545 | 21.11° C | 72% | 1016.5 hPa | 0 mm | - | 72 W/m² | - |
| 1787817644 | 20.56° C | 73% | 1016.5 hPa | 0 mm | - | 70 W/m² | - |
| 1787816743 | 20° C | 74% | 1016.4 hPa | 0 mm | - | 58 W/m² | - |
| 1787815841 | 21.11° C | 75% | 1016.6 hPa | 0 mm | - | 60 W/m² | - |
| 1787814937 | 19.44° C | 75% | 1016.7 hPa | 0 mm | - | 79 W/m² | - |
| 1787814034 | 18.89° C | 75% | 1016.8 hPa | 0 mm | - | 281 W/m² | - |
| 1787813131 | 18.33° C | 75% | 1016.7 hPa | 0 mm | - | 301 W/m² | - |
| 1787812229 | 17.78° C | 75% | 1016.8 hPa | 0 mm | - | 271 W/m² | - |
| 1787811331 | 17.78° C | 74% | 1017.1 hPa | 0 mm | - | 225 W/m² | - |
| 1787810426 | 17.22° C | 70% | 1016.7 hPa | 0 mm | - | 181 W/m² | - |
| 1787809523 | 16.67° C | 61% | 1017 hPa | 0 mm | - | 174 W/m² | - |
| 1787808619 | 16.11° C | 57% | 1017.2 hPa | 0 mm | - | 127 W/m² | - |
| 1787807715 | 15.56° C | 59% | 1017.2 hPa | 0 mm | - | 79 W/m² | - |
| 1787806814 | 15° C | 63% | 1017.3 hPa | 0 mm | - | 44 W/m² | - |
| 1787805909 | 15° C | 66% | 1017.1 hPa | 0 mm | - | 19 W/m² | - |
| 1787805007 | 15.56° C | 67% | 1017 hPa | 0 mm | - | 9 W/m² | - |
| 1787804103 | 15.56° C | 69% | 1016.9 hPa | 0 mm | - | 0 W/m² | - |
| 1787803201 | 15.56° C | 70% | 1016.6 hPa | 0 mm | - | 0 W/m² | - |
| 1787802370 | 16.11° C | 70% | 1016.4 hPa | 0 mm | - | 0 W/m² | - |
| 1787801459 | 16.11° C | 70% | 1016.4 hPa | 0 mm | - | 0 W/m² | - |
* Rain latest hour (hover to see other rain measurements)
** Current wind speed in m/s (hover to see current wind gust speed)